[ hide orbit diagram ]
For accurate long-term ephemerides, please instead use our Horizons system.This orbit viewer was implemented using two-body methods, and hence should not be used for determining accurate long-term trajectories (over several years or decades) or planetary encounter circumstances.
[ revert to old Java-based viewer ]
Orbital Elements at Epoch 2458600.5 (2019-Apr-27.0) TDB
Reference: JPL 11 (heliocentric ecliptic J2000)
Element | Value | Uncertainty (1-sigma) | Units |
e | .08112739087778184 | 6.3688e-08 | |
a | 3.176980060208264 | 7.4483e-08 | au |
q | 2.919239957052829 | 2.038e-07 | au |
i | 10.80112184505583 | 8.5868e-06 | deg |
node | 154.6405387071726 | 3.8246e-05 | deg |
peri | 265.0342118740198 | 6.6647e-05 | deg |
M | 130.5754682129997 | 5.3979e-05 | deg |
tp | 2457850.296214110095 (2017-Apr-06.79621411) | 0.00030758 | TDB |
period | 2068.331568069217 5.66 | 7.2737e-05 1.991e-07 | d yr |
n | .1740533314666078 | 6.1209e-09 | deg/d |
Q | 3.434720163363699 | 8.0526e-08 | au |
|
| | Orbit Determination Parameters
Additional Information
|
[ show covariance matrix ]
Physical Parameter Table
Parameter |
Symbol |
Value |
Units |
Sigma |
Reference |
Notes |
absolute magnitude |
H |
16.2 |
|
n/a |
MPO434636 |
|
|
441019 (2007 EE135) Discovered 2007-Jan-29 by Spacewatch at Kitt Peak |
Reference: | Last Updated: 2015-09-02 |
|
[ show close-approach data ]
|